| time (UTC) | temp F | wind direction | speed MPH | gust MPH | rain 1hr in | rain 24hr in | rain mn in | humidity % | barometer mb |
| 20260506164712 | 58 | 254 | 3.0 | 9.0 | 0.00 | 0.28 | 0.05 | 48 | 1011.9 |
| 20260506164212 | 58 | 234 | 6.0 | 14.0 | 0.00 | 0.28 | 0.05 | 48 | 1012.1 |
| 20260506163732 | 58 | 252 | 3.0 | 8.0 | 0.00 | 0.28 | 0.05 | 46 | 1012.2 |
| 20260506163212 | 58 | 277 | 2.0 | 6.0 | 0.00 | 0.28 | 0.05 | 49 | 1012.1 |
| 20260506162712 | 58 | 349 | 6.0 | 13.0 | 0.00 | 0.28 | 0.05 | 48 | 1012.1 |
| 20260506162212 | 57 | 255 | 5.0 | 10.0 | 0.00 | 0.28 | 0.05 | 49 | 1012.1 |
| 20260506161732 | 57 | 279 | 3.0 | 6.0 | 0.00 | 0.28 | 0.05 | 50 | 1012.0 |
| 20260506161212 | 56 | 244 | 6.0 | 10.0 | 0.00 | 0.28 | 0.05 | 50 | 1011.9 |
| 20260506160732 | 56 | 192 | 1.0 | 8.0 | 0.00 | 0.28 | 0.05 | 50 | 1012.0 |
| 20260506160212 | 56 | 339 | 6.0 | 11.0 | 0.00 | 0.28 | 0.05 | 47 | 1011.9 |
| 20260506155712 | 56 | 328 | 3.0 | 9.0 | 0.00 | 0.28 | 0.05 | 49 | 1011.9 |
| 20260506155212 | 56 | 335 | 5.0 | 9.0 | 0.00 | 0.28 | 0.05 | 51 | 1011.9 |
| 20260506154752 | 55 | 303 | 3.0 | 9.0 | 0.00 | 0.28 | 0.05 | 50 | 1011.9 |
| 20260506154212 | 55 | 323 | 5.0 | 9.0 | 0.00 | 0.28 | 0.05 | 52 | 1011.9 |
| 20260506153712 | 55 | 313 | 4.0 | 8.0 | 0.00 | 0.28 | 0.05 | 49 | 1011.9 |
| 20260506153212 | 55 | 332 | 4.0 | 6.0 | 0.00 | 0.28 | 0.05 | 48 | 1011.6 |
| 20260506152732 | 55 | 331 | 3.0 | 8.0 | 0.00 | 0.28 | 0.05 | 50 | 1011.7 |
| 20260506152212 | 55 | 331 | 3.0 | 7.0 | 0.00 | 0.28 | 0.05 | 49 | 1011.6 |
| 20260506151712 | 55 | 277 | 3.0 | 6.0 | 0.00 | 0.28 | 0.05 | 52 | 1011.6 |
| 20260506151212 | 54 | 344 | 2.0 | 4.0 | 0.00 | 0.28 | 0.05 | 54 | 1011.4 |
| 20260506150712 | 54 | 340 | 3.0 | 6.0 | 0.00 | 0.28 | 0.05 | 50 | 1011.4 |
| 20260506150212 | 54 | 326 | 2.0 | 8.0 | 0.00 | 0.28 | 0.05 | 50 | 1011.5 |
| 20260506145712 | 53 | 344 | 2.0 | 9.0 | 0.00 | 0.28 | 0.05 | 52 | 1011.4 |
| 20260506145212 | 53 | 307 | 5.0 | 10.0 | 0.00 | 0.28 | 0.05 | 51 | 1011.3 |
| 20260506144712 | 53 | 328 | 4.0 | 10.0 | 0.00 | 0.28 | 0.05 | 52 | 1011.5 |
| 20260506144212 | 53 | 330 | 8.0 | 11.0 | 0.00 | 0.28 | 0.05 | 51 | 1011.4 |
| 20260506143752 | 53 | 341 | 7.0 | 11.0 | 0.00 | 0.28 | 0.05 | 52 | 1011.4 |
| 20260506143212 | 53 | 30 | 1.0 | 3.0 | 0.00 | 0.28 | 0.05 | 54 | 1011.0 |
| 20260506142732 | 53 | 347 | 5.0 | 10.0 | 0.00 | 0.28 | 0.05 | 55 | 1011.3 |
| 20260506142212 | 52 | 334 | 6.0 | 11.0 | 0.00 | 0.28 | 0.05 | 50 | 1011.2 |
| 20260506141712 | 52 | 335 | 7.0 | 12.0 | 0.00 | 0.28 | 0.05 | 52 | 1011.2 |
| 20260506141212 | 52 | 340 | 6.0 | 10.0 | 0.00 | 0.28 | 0.05 | 54 | 1011.2 |
| 20260506140732 | 52 | 324 | 8.0 | 12.0 | 0.00 | 0.28 | 0.05 | 55 | 1011.3 |
| 20260506140212 | 52 | 327 | 4.0 | 8.0 | 0.00 | 0.28 | 0.05 | 59 | 1011.3 |
| 20260506135712 | 52 | 322 | 5.0 | 9.0 | 0.00 | 0.28 | 0.05 | 60 | 1011.4 |
| 20260506135212 | 51 | 339 | 3.0 | 8.0 | 0.00 | 0.28 | 0.05 | 58 | 1011.2 |
| 20260506134712 | 51 | 331 | 3.0 | 7.0 | 0.00 | 0.28 | 0.05 | 63 | 1011.3 |
| 20260506134212 | 50 | 301 | 3.0 | 7.0 | 0.00 | 0.28 | 0.05 | 63 | 1011.2 |
| 20260506133712 | 50 | 342 | 2.0 | 4.0 | 0.00 | 0.28 | 0.05 | 67 | 1011.3 |
| 20260506133212 | 50 | 335 | 6.0 | 12.0 | 0.00 | 0.28 | 0.05 | 66 | 1011.1 |
| 20260506132712 | 49 | 337 | 4.0 | 7.0 | 0.00 | 0.28 | 0.05 | 70 | 1011.0 |
| 20260506132212 | 49 | 328 | 3.0 | 4.0 | 0.00 | 0.28 | 0.05 | 72 | 1010.9 |
| 20260506131712 | 49 | 353 | 6.0 | 10.0 | 0.00 | 0.28 | 0.05 | 74 | 1010.8 |
| 20260506131212 | 48 | 353 | 3.0 | 9.0 | 0.00 | 0.28 | 0.05 | 79 | 1010.8 |
| 20260506130712 | 48 | 4 | 2.0 | 4.0 | 0.00 | 0.28 | 0.05 | 81 | 1010.8 |
| 20260506130212 | 47 | 345 | 2.0 | 6.0 | 0.00 | 0.28 | 0.05 | 82 | 1010.7 |
| 20260506125712 | 47 | 332 | 5.0 | 10.0 | 0.00 | 0.28 | 0.05 | 85 | 1010.5 |
| 20260506125212 | 46 | 351 | 2.0 | 5.0 | 0.00 | 0.28 | 0.05 | 87 | 1010.5 |
| 20260506124712 | 45 | 324 | 5.0 | 10.0 | 0.00 | 0.28 | 0.05 | 89 | 1010.6 |
| 20260506124212 | 45 | 329 | 4.0 | 8.0 | 0.00 | 0.28 | 0.05 | 92 | 1010.5 |
| 20260506123712 | 45 | 338 | 3.0 | 5.0 | 0.00 | 0.28 | 0.05 | 93 | 1010.6 |
| 20260506123232 | 45 | 312 | 3.0 | 5.0 | 0.00 | 0.28 | 0.05 | 94 | 1010.6 |
| 20260506122732 | 44 | 328 | 3.0 | 6.0 | 0.00 | 0.28 | 0.05 | 94 | 1010.4 |
| 20260506122212 | 44 | 336 | 3.0 | 5.0 | 0.00 | 0.28 | 0.05 | 94 | 1010.2 |
| 20260506121712 | 44 | 306 | 2.0 | 6.0 | 0.00 | 0.28 | 0.05 | 94 | 1010.2 |
| 20260506121211 | 44 | 311 | 1.0 | 3.0 | 0.00 | 0.28 | 0.05 | 94 | 1010.1 |
| 20260506120712 | 44 | 331 | 0.0 | 2.0 | 0.00 | 0.28 | 0.05 | 94 | 1009.9 |
| 20260506120212 | 44 | 0.0 | 0.0 | 0.00 | 0.28 | 0.05 | 94 | 1009.9 | |
| 20260506115712 | 44 | 0.0 | 0.0 | 0.00 | 0.28 | 0.05 | 95 | 1009.8 | |
| 20260506115212 | 44 | 0.0 | 2.0 | 0.00 | 0.28 | 0.05 | 95 | 1009.6 | |
| 20260506114712 | 44 | 312 | 0.0 | 2.0 | 0.00 | 0.28 | 0.05 | 94 | 1009.6 |
| 20260506114212 | 44 | 252 | 1.0 | 3.0 | 0.00 | 0.28 | 0.05 | 94 | 1009.6 |
| 20260506113711 | 44 | 0.0 | 1.0 | 0.00 | 0.28 | 0.05 | 94 | 1009.4 | |
| 20260506113211 | 44 | 0.0 | 1.0 | 0.00 | 0.28 | 0.05 | 94 | 1009.4 | |
| 20260506112712 | 44 | 0.0 | 0.0 | 0.00 | 0.28 | 0.05 | 94 | 1009.5 | |
| 20260506112212 | 44 | 0.0 | 0.0 | 0.00 | 0.28 | 0.05 | 94 | 1009.4 | |
| 20260506111712 | 44 | 285 | 0.0 | 1.0 | 0.00 | 0.28 | 0.05 | 94 | 1009.4 |
| 20260506111212 | 44 | 308 | 0.0 | 1.0 | 0.00 | 0.28 | 0.05 | 94 | 1009.2 |
| 20260506110712 | 44 | 0.0 | 0.0 | 0.00 | 0.28 | 0.05 | 94 | 1009.3 | |
| 20260506110212 | 44 | 0.0 | 1.0 | 0.00 | 0.28 | 0.05 | 94 | 1009.1 | |
| 20260506105712 | 44 | 240 | 0.0 | 2.0 | 0.00 | 0.28 | 0.05 | 94 | 1009.0 |
| 20260506105211 | 44 | 242 | 0.0 | 1.0 | 0.00 | 0.28 | 0.05 | 94 | 1008.7 |
| 20260506104711 | 44 | 0.0 | 2.0 | 0.00 | 0.28 | 0.05 | 94 | 1008.9 | |
| 20260506104211 | 44 | 259 | 0.0 | 1.0 | 0.00 | 0.28 | 0.05 | 94 | 1008.8 |
| 20260506103711 | 44 | 266 | 0.0 | 1.0 | 0.00 | 0.28 | 0.05 | 94 | 1008.7 |
| 20260506103232 | 44 | 0.0 | 3.0 | 0.00 | 0.28 | 0.05 | 94 | 1008.8 | |
| 20260506102712 | 44 | 240 | 0.0 | 1.0 | 0.00 | 0.28 | 0.05 | 94 | 1008.6 |
| 20260506102211 | 44 | 0.0 | 0.0 | 0.00 | 0.28 | 0.05 | 94 | 1008.3 | |
| 20260506101712 | 44 | 0.0 | 0.0 | 0.00 | 0.28 | 0.05 | 94 | 1008.4 | |
| 20260506101211 | 44 | 200 | 0.0 | 1.0 | 0.00 | 0.28 | 0.05 | 94 | 1008.4 |
| 20260506100711 | 44 | 215 | 3.0 | 4.0 | 0.00 | 0.28 | 0.05 | 94 | 1008.6 |
| 20260506100231 | 44 | 237 | 2.0 | 4.0 | 0.00 | 0.28 | 0.05 | 94 | 1008.7 |
| 20260506095711 | 44 | 237 | 2.0 | 3.0 | 0.00 | 0.28 | 0.05 | 94 | 1008.8 |
| 20260506095212 | 44 | 225 | 0.0 | 3.0 | 0.00 | 0.28 | 0.05 | 94 | 1008.7 |
| 20260506094712 | 44 | 240 | 2.0 | 4.0 | 0.00 | 0.28 | 0.05 | 94 | 1008.5 |
| 20260506094231 | 44 | 228 | 2.0 | 3.0 | 0.00 | 0.28 | 0.05 | 94 | 1008.3 |
| 20260506093711 | 44 | 231 | 1.0 | 3.0 | 0.00 | 0.28 | 0.05 | 94 | 1008.2 |
| 20260506093211 | 44 | 233 | 2.0 | 4.0 | 0.00 | 0.28 | 0.05 | 94 | 1008.2 |
| 20260506092711 | 44 | 250 | 1.0 | 3.0 | 0.00 | 0.28 | 0.05 | 94 | 1008.2 |
| 20260506092211 | 44 | 242 | 1.0 | 3.0 | 0.00 | 0.28 | 0.05 | 94 | 1008.4 |
| 20260506091712 | 44 | 230 | 0.0 | 1.0 | 0.00 | 0.28 | 0.05 | 94 | 1008.2 |
| 20260506091211 | 44 | 219 | 0.0 | 2.0 | 0.00 | 0.28 | 0.05 | 94 | 1008.2 |
| 20260506090711 | 44 | 219 | 1.0 | 2.0 | 0.00 | 0.28 | 0.05 | 94 | 1008.4 |
| 20260506090211 | 44 | 215 | 2.0 | 3.0 | 0.00 | 0.28 | 0.05 | 94 | 1008.6 |
| 20260506085711 | 44 | 0.0 | 3.0 | 0.00 | 0.28 | 0.05 | 94 | 1008.7 | |
| 20260506085211 | 44 | 195 | 2.0 | 3.0 | 0.00 | 0.28 | 0.05 | 94 | 1008.6 |
| 20260506084711 | 44 | 191 | 2.0 | 4.0 | 0.00 | 0.28 | 0.05 | 94 | 1008.4 |
| 20260506084211 | 44 | 0.0 | 1.0 | 0.00 | 0.28 | 0.05 | 94 | 1008.2 | |
| 20260506083711 | 44 | 0.0 | 0.0 | 0.00 | 0.28 | 0.05 | 94 | 1008.2 | |
| 20260506083211 | 44 | 237 | 0.0 | 1.0 | 0.00 | 0.28 | 0.05 | 94 | 1008.2 |
| 20260506082711 | 44 | 232 | 1.0 | 2.0 | 0.00 | 0.28 | 0.05 | 94 | 1008.2 |
| 20260506082212 | 44 | 235 | 0.0 | 2.0 | 0.00 | 0.28 | 0.05 | 94 | 1008.2 |
| 20260506081711 | 44 | 242 | 0.0 | 2.0 | 0.00 | 0.28 | 0.05 | 94 | 1008.3 |
| 20260506081211 | 44 | 234 | 3.0 | 4.0 | 0.00 | 0.28 | 0.05 | 94 | 1008.5 |
| 20260506080711 | 44 | 206 | 1.0 | 5.0 | 0.00 | 0.28 | 0.05 | 94 | 1008.3 |
| 20260506080211 | 44 | 202 | 1.0 | 3.0 | 0.00 | 0.28 | 0.05 | 94 | 1008.2 |
| 20260506073211 | 44 | 0.0 | 0.0 | 0.02 | 0.28 | 0.05 | 94 | 1008.0 | |
| 20260506072711 | 44 | 161 | 0.0 | 1.0 | 0.02 | 0.28 | 0.05 | 94 | 1008.2 |
| 20260506072211 | 44 | 213 | 0.0 | 2.0 | 0.02 | 0.28 | 0.05 | 94 | 1008.3 |
| 20260506071711 | 44 | 195 | 3.0 | 4.0 | 0.02 | 0.28 | 0.05 | 94 | 1008.2 |
| 20260506071211 | 45 | 196 | 1.0 | 3.0 | 0.03 | 0.28 | 0.05 | 94 | 1008.4 |
| 20260506070711 | 45 | 215 | 0.0 | 3.0 | 0.03 | 0.28 | 0.05 | 94 | 1008.6 |
| 20260506070211 | 45 | 227 | 2.0 | 3.0 | 0.04 | 0.28 | 0.05 | 94 | 1008.6 |
| 20260506062231 | 45 | 0.0 | 0.0 | 0.02 | 0.26 | 0.03 | 94 | 1008.5 | |
| 20260506061711 | 45 | 231 | 1.0 | 2.0 | 0.02 | 0.26 | 0.03 | 94 | 1008.7 |
| 20260506061211 | 45 | 219 | 0.0 | 1.0 | 0.01 | 0.25 | 0.02 | 94 | 1009.0 |
| 20260506060711 | 45 | 243 | 1.0 | 3.0 | 0.01 | 0.25 | 0.02 | 94 | 1008.9 |
| 20260506060211 | 46 | 0.0 | 1.0 | 0.00 | 0.24 | 0.01 | 94 | 1008.9 | |
| 20260506051211 | 45 | 0.0 | 0.0 | 0.00 | 0.24 | 0.01 | 94 | 1008.7 | |
| 20260506050711 | 45 | 0.0 | 0.0 | 0.01 | 0.24 | 0.01 | 94 | 1008.8 | |
| 20260506050211 | 45 | 0.0 | 0.0 | 0.01 | 0.24 | 0.01 | 94 | 1008.8 | |
| 20260506044751 | 45 | 0.0 | 0.0 | 0.01 | 0.24 | 0.01 | 94 | 1008.8 | |
| 20260506044211 | 45 | 0.0 | 0.0 | 0.01 | 0.24 | 0.01 | 94 | 1008.6 | |
| 20260506043711 | 45 | 0.0 | 0.0 | 0.01 | 0.24 | 0.01 | 94 | 1008.6 | |
| 20260506043211 | 45 | 0.0 | 0.0 | 0.01 | 0.24 | 0.01 | 94 | 1008.6 | |
| 20260506042711 | 45 | 0.0 | 0.0 | 0.01 | 0.24 | 0.01 | 93 | 1008.6 | |
| 20260506042211 | 45 | 0.0 | 0.0 | 0.01 | 0.24 | 0.01 | 93 | 1008.5 | |
| 20260506041731 | 45 | 0.0 | 0.0 | 0.01 | 0.24 | 0.01 | 94 | 1008.6 | |
| 20260506041211 | 45 | 0.0 | 0.0 | 0.01 | 0.24 | 0.01 | 94 | 1008.6 | |
| 20260506040731 | 45 | 0.0 | 0.0 | 0.00 | 0.23 | 0.00 | 94 | 1008.5 | |
| 20260506040211 | 45 | 0.0 | 0.0 | 0.00 | 0.23 | 0.00 | 93 | 1008.7 | |
| 20260506035711 | 45 | 0.0 | 0.0 | 0.00 | 0.23 | 0.23 | 94 | 1008.6 | |
| 20260506035231 | 45 | 0.0 | 0.0 | 0.00 | 0.23 | 0.23 | 94 | 1008.6 | |
| 20260506034731 | 45 | 0.0 | 0.0 | 0.00 | 0.23 | 0.23 | 94 | 1008.5 | |
| 20260506034211 | 45 | 310 | 0.0 | 1.0 | 0.00 | 0.23 | 0.23 | 93 | 1008.5 |
| 20260506033711 | 45 | 0.0 | 0.0 | 0.00 | 0.23 | 0.23 | 93 | 1008.4 | |
| 20260506033211 | 45 | 0.0 | 0.0 | 0.00 | 0.23 | 0.23 | 93 | 1008.4 | |
| 20260506032711 | 45 | 0.0 | 0.0 | 0.00 | 0.23 | 0.23 | 93 | 1008.2 | |
| 20260506032211 | 45 | 0.0 | 0.0 | 0.01 | 0.23 | 0.23 | 93 | 1008.3 | |
| 20260506031711 | 45 | 0.0 | 0.0 | 0.01 | 0.23 | 0.23 | 93 | 1008.3 | |
| 20260506031211 | 45 | 0.0 | 0.0 | 0.01 | 0.23 | 0.23 | 93 | 1008.4 | |
| 20260506030711 | 45 | 0.0 | 0.0 | 0.01 | 0.23 | 0.23 | 93 | 1008.3 | |
| 20260506030211 | 45 | 317 | 0.0 | 1.0 | 0.01 | 0.23 | 0.23 | 93 | 1008.2 |
| 20260506025714 | 45 | 0.0 | 0.0 | 0.01 | 0.23 | 0.23 | 93 | 1008.3 | |
| 20260506025211 | 46 | 0.0 | 0.0 | 0.02 | 0.23 | 0.23 | 93 | 1008.4 | |
| 20260506024713 | 46 | 0.0 | 0.0 | 0.02 | 0.23 | 0.23 | 93 | 1008.4 | |
| 20260506024211 | 46 | 0.0 | 0.0 | 0.02 | 0.23 | 0.23 | 93 | 1008.4 | |
| 20260506023711 | 46 | 0.0 | 0.0 | 0.03 | 0.23 | 0.23 | 93 | 1008.5 | |
| 20260506023211 | 46 | 328 | 1.0 | 2.0 | 0.03 | 0.23 | 0.23 | 92 | 1008.5 |
| 20260506022712 | 47 | 274 | 0.0 | 1.0 | 0.03 | 0.23 | 0.23 | 93 | 1008.7 |
| 20260506022211 | 47 | 311 | 1.0 | 4.0 | 0.02 | 0.22 | 0.22 | 93 | 1008.5 |
| 20260506021731 | 48 | 331 | 2.0 | 6.0 | 0.02 | 0.22 | 0.22 | 93 | 1008.4 |
| 20260506021211 | 49 | 304 | 1.0 | 3.0 | 0.03 | 0.22 | 0.22 | 93 | 1008.5 |
| 20260506020711 | 49 | 0.0 | 1.0 | 0.03 | 0.22 | 0.22 | 93 | 1008.5 | |
| 20260506020211 | 49 | 224 | 1.0 | 3.0 | 0.03 | 0.22 | 0.22 | 93 | 1008.6 |
| 20260506015731 | 49 | 229 | 1.0 | 3.0 | 0.03 | 0.22 | 0.22 | 93 | 1008.5 |
| 20260506015231 | 49 | 0.0 | 0.0 | 0.02 | 0.21 | 0.21 | 93 | 1008.3 | |
| 20260506014711 | 49 | 256 | 0.0 | 3.0 | 0.03 | 0.21 | 0.21 | 93 | 1008.4 |
| 20260506014211 | 49 | 0.0 | 3.0 | 0.03 | 0.21 | 0.21 | 93 | 1008.4 | |
| 20260506013751 | 49 | 198 | 2.0 | 3.0 | 0.02 | 0.20 | 0.20 | 93 | 1008.2 |
| 20260506013211 | 49 | 212 | 1.0 | 1.0 | 0.02 | 0.20 | 0.20 | 93 | 1008.2 |
| 20260506012711 | 49 | 211 | 1.0 | 2.0 | 0.02 | 0.20 | 0.20 | 93 | 1008.0 |
| 20260506012211 | 49 | 207 | 2.0 | 3.0 | 0.02 | 0.20 | 0.20 | 93 | 1007.9 |
| 20260506011711 | 49 | 208 | 1.0 | 4.0 | 0.02 | 0.20 | 0.20 | 93 | 1007.8 |
| 20260506011211 | 49 | 192 | 3.0 | 4.0 | 0.01 | 0.19 | 0.19 | 93 | 1007.7 |
| 20260506010711 | 49 | 211 | 0.0 | 1.0 | 0.01 | 0.19 | 0.19 | 93 | 1007.7 |
| 20260506010211 | 49 | 213 | 1.0 | 5.0 | 0.01 | 0.19 | 0.19 | 93 | 1007.7 |
| 20260506005711 | 49 | 215 | 0.0 | 1.0 | 0.02 | 0.19 | 0.19 | 93 | 1007.6 |
| 20260506005211 | 50 | 227 | 1.0 | 2.0 | 0.02 | 0.19 | 0.19 | 93 | 1007.6 |
| 20260506004731 | 50 | 254 | 0.0 | 1.0 | 0.01 | 0.18 | 0.18 | 93 | 1007.6 |
| 20260506004211 | 50 | 214 | 2.0 | 4.0 | 0.01 | 0.18 | 0.18 | 93 | 1007.6 |
| 20260506003711 | 50 | 254 | 1.0 | 2.0 | 0.02 | 0.18 | 0.18 | 93 | 1007.6 |
| 20260506003211 | 50 | 0.0 | 0.0 | 0.02 | 0.18 | 0.18 | 93 | 1007.6 | |
| 20260506002711 | 50 | 0.0 | 1.0 | 0.02 | 0.18 | 0.18 | 93 | 1007.5 | |
| 20260506002231 | 50 | 0.0 | 0.0 | 0.02 | 0.18 | 0.18 | 93 | 1007.6 | |
| 20260506001731 | 50 | 197 | 1.0 | 3.0 | 0.02 | 0.18 | 0.18 | 93 | 1007.6 |
| 20260506001211 | 50 | 197 | 1.0 | 3.0 | 0.03 | 0.18 | 0.18 | 93 | 1007.5 |
| 20260506000711 | 50 | 197 | 0.0 | 3.0 | 0.03 | 0.18 | 0.18 | 93 | 1007.6 |
| 20260506000212 | 50 | 216 | 1.0 | 2.0 | 0.03 | 0.18 | 0.18 | 92 | 1007.5 |
| 20260505235731 | 50 | 175 | 0.0 | 2.0 | 0.02 | 0.17 | 0.17 | 93 | 1007.5 |
| 20260505235231 | 50 | 200 | 0.0 | 2.0 | 0.02 | 0.17 | 0.17 | 92 | 1007.5 |
| 20260505234711 | 50 | 182 | 1.0 | 4.0 | 0.03 | 0.17 | 0.17 | 92 | 1007.4 |
| 20260505234211 | 50 | 166 | 0.0 | 2.0 | 0.03 | 0.17 | 0.17 | 92 | 1007.3 |
| 20260505233711 | 50 | 189 | 1.0 | 2.0 | 0.02 | 0.16 | 0.16 | 92 | 1007.3 |
| 20260505233211 | 50 | 218 | 2.0 | 6.0 | 0.02 | 0.16 | 0.16 | 92 | 1007.4 |
| 20260505232711 | 50 | 188 | 1.0 | 4.0 | 0.02 | 0.16 | 0.16 | 92 | 1007.4 |
| 20260505232211 | 50 | 210 | 2.0 | 4.0 | 0.02 | 0.16 | 0.16 | 92 | 1007.3 |
| 20260505231711 | 50 | 222 | 1.0 | 3.0 | 0.02 | 0.16 | 0.16 | 92 | 1007.3 |
| 20260505231211 | 50 | 200 | 3.0 | 4.0 | 0.01 | 0.15 | 0.15 | 92 | 1007.3 |
| 20260505230731 | 50 | 189 | 1.0 | 2.0 | 0.01 | 0.15 | 0.15 | 92 | 1007.2 |
| 20260505230211 | 50 | 194 | 1.0 | 4.0 | 0.01 | 0.15 | 0.15 | 92 | 1007.2 |
| 20260505225711 | 50 | 192 | 2.0 | 3.0 | 0.01 | 0.15 | 0.15 | 92 | 1007.2 |
| 20260505225210 | 50 | 187 | 1.0 | 4.0 | 0.01 | 0.15 | 0.15 | 92 | 1007.2 |
| 20260505224710 | 50 | 188 | 2.0 | 4.0 | 0.00 | 0.14 | 0.14 | 92 | 1007.2 |
| 20260505224211 | 50 | 191 | 1.0 | 3.0 | 0.00 | 0.14 | 0.14 | 92 | 1007.2 |
| 20260505223731 | 50 | 207 | 1.0 | 2.0 | 0.00 | 0.14 | 0.14 | 91 | 1007.1 |
| 20260505223251 | 50 | 209 | 1.0 | 2.0 | 0.01 | 0.14 | 0.14 | 91 | 1007.0 |
| 20260505222711 | 50 | 209 | 1.0 | 2.0 | 0.01 | 0.14 | 0.14 | 92 | 1006.9 |
| 20260505222231 | 50 | 209 | 0.0 | 1.0 | 0.02 | 0.14 | 0.14 | 92 | 1007.0 |
| 20260505221711 | 50 | 210 | 1.0 | 2.0 | 0.02 | 0.14 | 0.14 | 92 | 1006.9 |
| 20260505221211 | 50 | 0.0 | 0.0 | 0.02 | 0.14 | 0.14 | 92 | 1006.9 | |
| 20260505220710 | 50 | 0.0 | 0.0 | 0.02 | 0.14 | 0.14 | 92 | 1006.9 | |
| 20260505220210 | 50 | 0.0 | 0.0 | 0.03 | 0.14 | 0.14 | 92 | 1006.8 | |
| 20260505215710 | 50 | 211 | 0.0 | 1.0 | 0.03 | 0.14 | 0.14 | 92 | 1006.9 |
| 20260505215210 | 50 | 227 | 0.0 | 2.0 | 0.04 | 0.14 | 0.14 | 92 | 1006.8 |
| 20260505214711 | 50 | 0.0 | 0.0 | 0.04 | 0.14 | 0.14 | 91 | 1006.7 | |
| 20260505214211 | 50 | 0.0 | 0.0 | 0.04 | 0.14 | 0.14 | 91 | 1006.7 | |
| 20260505213710 | 50 | 0.0 | 0.0 | 0.04 | 0.14 | 0.14 | 91 | 1006.7 | |
| 20260505213210 | 50 | 0.0 | 0.0 | 0.04 | 0.13 | 0.13 | 91 | 1006.7 | |
| 20260505212711 | 51 | 322 | 0.0 | 1.0 | 0.04 | 0.13 | 0.13 | 91 | 1006.8 |
| 20260505212210 | 51 | 0.0 | 1.0 | 0.03 | 0.12 | 0.12 | 91 | 1006.8 | |
| 20260505211711 | 51 | 0.0 | 0.0 | 0.04 | 0.12 | 0.12 | 91 | 1006.6 | |
| 20260505211231 | 51 | 288 | 0.0 | 1.0 | 0.04 | 0.12 | 0.12 | 91 | 1006.7 |
| 20260505210711 | 51 | 281 | 1.0 | 2.0 | 0.04 | 0.12 | 0.12 | 91 | 1007.0 |
| 20260505210210 | 51 | 0.0 | 1.0 | 0.03 | 0.11 | 0.11 | 91 | 1007.3 | |
| 20260505205731 | 51 | 245 | 1.0 | 2.0 | 0.04 | 0.11 | 0.11 | 91 | 1007.2 |
| 20260505205230 | 51 | 0.0 | 0.0 | 0.03 | 0.10 | 0.10 | 91 | 1007.3 | |
| 20260505204711 | 51 | 0.0 | 1.0 | 0.03 | 0.10 | 0.10 | 91 | 1007.2 | |
| 20260505204230 | 51 | 0.0 | 1.0 | 0.04 | 0.10 | 0.10 | 90 | 1007.2 | |
| 20260505203711 | 51 | 237 | 2.0 | 3.0 | 0.04 | 0.10 | 0.10 | 90 | 1007.1 |
| 20260505203210 | 51 | 0.0 | 1.0 | 0.03 | 0.09 | 0.09 | 90 | 1007.2 | |
| 20260505202710 | 51 | 0.0 | 1.0 | 0.04 | 0.09 | 0.09 | 90 | 1007.1 | |
| 20260505202210 | 51 | 0.0 | 0.0 | 0.04 | 0.09 | 0.09 | 90 | 1007.1 | |
| 20260505201710 | 51 | 224 | 0.0 | 2.0 | 0.04 | 0.08 | 0.08 | 90 | 1007.1 |
| 20260505201330 | 51 | 302 | 1.0 | 3.0 | 0.04 | 0.08 | 0.08 | 89 | 1007.2 |
| 20260505200710 | 51 | 313 | 1.0 | 2.0 | 0.05 | 0.08 | 0.08 | 89 | 1007.2 |
| 20260505200210 | 51 | 317 | 1.0 | 3.0 | 0.05 | 0.08 | 0.08 | 89 | 1007.3 |
| 20260505195710 | 51 | 310 | 1.0 | 3.0 | 0.05 | 0.07 | 0.07 | 88 | 1007.4 |
| 20260505195250 | 51 | 333 | 1.0 | 3.0 | 0.05 | 0.07 | 0.07 | 88 | 1007.2 |
| 20260505194810 | 51 | 317 | 1.0 | 2.0 | 0.06 | 0.07 | 0.07 | 89 | 1007.3 |
| 20260505194210 | 51 | 332 | 1.0 | 2.0 | 0.05 | 0.06 | 0.06 | 87 | 1007.6 |
| 20260505193710 | 52 | 321 | 2.0 | 4.0 | 0.05 | 0.06 | 0.06 | 87 | 1007.5 |
| 20260505193210 | 52 | 296 | 1.0 | 3.0 | 0.06 | 0.06 | 0.06 | 86 | 1007.6 |
| 20260505192730 | 52 | 275 | 0.0 | 1.0 | 0.05 | 0.05 | 0.05 | 86 | 1007.8 |
| 20260505192210 | 52 | 312 | 0.0 | 4.0 | 0.05 | 0.05 | 0.05 | 85 | 1007.7 |
| 20260505191710 | 52 | 308 | 0.0 | 2.0 | 0.04 | 0.04 | 0.04 | 84 | 1007.8 |
| 20260505191212 | 53 | 301 | 4.0 | 10.0 | 0.04 | 0.04 | 0.04 | 83 | 1007.6 |
| 20260505190712 | 54 | 316 | 1.0 | 3.0 | 0.03 | 0.03 | 0.03 | 83 | 1007.7 |
| 20260505190212 | 54 | 246 | 1.0 | 4.0 | 0.03 | 0.03 | 0.03 | 82 | 1007.7 |
| 20260505185712 | 54 | 0.0 | 0.0 | 0.02 | 0.02 | 0.02 | 81 | 1007.3 | |
| 20260505185212 | 55 | 239 | 0.0 | 4.0 | 0.02 | 0.02 | 0.02 | 79 | 1007.1 |
| 20260505184712 | 55 | 335 | 0.0 | 1.0 | 0.01 | 0.01 | 0.01 | 77 | 1007.1 |
| 20260505184212 | 55 | 264 | 1.0 | 2.0 | 0.01 | 0.01 | 0.01 | 75 | 1007.2 |
| 20260505183712 | 56 | 327 | 3.0 | 4.0 | 0.01 | 0.01 | 0.01 | 73 | 1007.1 |
| 20260505183212 | 57 | 319 | 0.0 | 1.0 | 0.00 | 0.00 | 0.00 | 70 | 1007.4 |
| 20260505182732 | 57 | 284 | 1.0 | 2.0 | 0.00 | 0.00 | 0.00 | 67 | 1007.4 |
| 20260505182212 | 58 | 315 | 2.0 | 3.0 | 0.00 | 0.00 | 0.00 | 64 | 1007.4 |
| 20260505181712 | 58 | 2 | 2.0 | 5.0 | 0.00 | 0.00 | 0.00 | 62 | 1007.3 |
| 20260505181212 | 58 | 317 | 0.0 | 5.0 | 0.00 | 0.00 | 0.00 | 61 | 1007.1 |
| 20260505180712 | 58 | 271 | 2.0 | 9.0 | 0.00 | 0.00 | 0.00 | 59 | 1007.1 |
| 20260505180212 | 59 | 238 | 1.0 | 7.0 | 0.00 | 0.00 | 0.00 | 58 | 1006.9 |
| 20260505175712 | 59 | 239 | 4.0 | 8.0 | 0.00 | 0.00 | 0.00 | 59 | 1006.9 |
| 20260505175212 | 59 | 216 | 5.0 | 8.0 | 0.00 | 0.00 | 0.00 | 58 | 1006.7 |
| 20260505174712 | 59 | 245 | 2.0 | 9.0 | 0.00 | 0.00 | 0.00 | 58 | 1006.6 |
| 20260505174232 | 59 | 234 | 0.0 | 2.0 | 0.00 | 0.00 | 0.00 | 58 | 1006.5 |
| 20260505173712 | 59 | 238 | 4.0 | 5.0 | 0.00 | 0.00 | 0.00 | 56 | 1006.4 |
| 20260505173212 | 59 | 223 | 2.0 | 5.0 | 0.00 | 0.00 | 0.00 | 57 | 1006.4 |
| 20260505172712 | 59 | 207 | 3.0 | 5.0 | 0.00 | 0.00 | 0.00 | 59 | 1006.3 |
| 20260505172212 | 59 | 235 | 0.0 | 3.0 | 0.00 | 0.00 | 0.00 | 56 | 1006.1 |
| 20260505171712 | 59 | 242 | 4.0 | 6.0 | 0.00 | 0.00 | 0.00 | 56 | 1006.1 |
| 20260505171212 | 59 | 225 | 3.0 | 7.0 | 0.00 | 0.00 | 0.00 | 55 | 1006.2 |
| 20260505170732 | 59 | 216 | 3.0 | 7.0 | 0.00 | 0.00 | 0.00 | 58 | 1006.3 |
| 20260505170212 | 59 | 228 | 2.0 | 5.0 | 0.00 | 0.00 | 0.00 | 56 | 1006.5 |
| 20260505165712 | 59 | 237 | 4.0 | 6.0 | 0.00 | 0.00 | 0.00 | 55 | 1006.5 |
| 20260505165212 | 59 | 219 | 6.0 | 11.0 | 0.00 | 0.00 | 0.00 | 59 | 1006.5 |